LOT87M EPWA-EPKT

Flight info

Callsign LOT87M
Flight time N/A
Altitude 26000
Route EVINA M66 KUKAM
Aircraft E170/M-SDE3GILORVW/S

Departure

Time N/A
Airport Warsaw Chopin Airport (EPWA)

Arrival

Time 2026-04-27 00:52
Airport Katowice Wojciech Korfanty International Airport (EPKT)
Time Latitude Longitude Altitude Speed Heading
2026-04-27 00:35 50.71387 19.81467 18158 ft 290 kts 247°
2026-04-27 00:35 50.70348 19.78735 17794 ft 292 kts 247°
2026-04-27 00:36 50.69329 19.76013 17374 ft 283 kts 247°
2026-04-27 00:36 50.68344 19.73427 17033 ft 268 kts 247°
2026-04-27 00:36 50.67397 19.70960 16679 ft 257 kts 248°
2026-04-27 00:36 50.66495 19.68597 16348 ft 247 kts 248°
2026-04-27 00:37 50.65717 19.66290 16036 ft 235 kts 257°
2026-04-27 00:37 50.65299 19.63827 15780 ft 228 kts 269°
2026-04-27 00:37 50.65247 19.61375 15447 ft 227 kts 278°
2026-04-27 00:37 50.65309 19.58886 15122 ft 227 kts 278°
2026-04-27 00:38 50.65374 19.56414 14832 ft 225 kts 279°
2026-04-27 00:38 50.65462 19.53956 14526 ft 224 kts 279°
2026-04-27 00:38 50.65562 19.51504 14232 ft 224 kts 279°
2026-04-27 00:38 50.65621 19.49047 13929 ft 224 kts 277°
2026-04-27 00:39 50.65465 19.46603 13821 ft 225 kts 264°
2026-04-27 00:39 50.64958 19.44183 13591 ft 241 kts 252°
2026-04-27 00:39 50.64028 19.41910 13141 ft 252 kts 236°
2026-04-27 00:39 50.62696 19.40119 12746 ft 260 kts 219°
2026-04-27 00:40 50.61007 19.39012 12339 ft 267 kts 199°
2026-04-27 00:40 50.59149 19.38880 12007 ft 271 kts 175°
2026-04-27 00:40 50.57360 19.39842 11684 ft 276 kts 150°
2026-04-27 00:40 50.55985 19.41932 11293 ft 278 kts 120°
2026-04-27 00:41 50.55363 19.44749 10938 ft 271 kts 90°
2026-04-27 00:41 50.55547 19.47608 10616 ft 259 kts 70°
2026-04-27 00:41 50.56003 19.50335 10250 ft 258 kts 69°
2026-04-27 00:41 50.56387 19.53043 9845 ft 258 kts 78°
2026-04-27 00:42 50.56423 19.55852 9550 ft 256 kts 89°
2026-04-27 00:42 50.56293 19.58635 9258 ft 256 kts 95°
2026-04-27 00:42 50.55752 19.61307 8966 ft 260 kts 118°
2026-04-27 00:42 50.54558 19.63415 8610 ft 260 kts 148°
2026-04-27 00:43 50.52909 19.64401 8278 ft 251 kts 178°
2026-04-27 00:43 50.51191 19.64452 7950 ft 245 kts 186°
2026-04-27 00:43 50.49513 19.64116 7565 ft 240 kts 203°
2026-04-27 00:43 50.48150 19.62805 7281 ft 224 kts 232°
2026-04-27 00:44 50.47440 19.60730 7025 ft 214 kts 262°
2026-04-27 00:44 50.47358 19.58455 6775 ft 212 kts 272°
2026-04-27 00:44 50.47369 19.56116 6436 ft 215 kts 273°
2026-04-27 00:44 50.47390 19.53776 6152 ft 214 kts 272°
2026-04-27 00:45 50.47410 19.51438 5881 ft 213 kts 272°
2026-04-27 00:45 50.47429 19.49175 5583 ft 202 kts 272°
2026-04-27 00:45 50.47443 19.47024 5302 ft 191 kts 272°
2026-04-27 00:45 50.47457 19.45001 5047 ft 181 kts 272°
2026-04-27 00:46 50.47471 19.43059 4792 ft 176 kts 272°
2026-04-27 00:46 50.47481 19.41157 4561 ft 174 kts 271°
2026-04-27 00:46 50.47489 19.39305 4391 ft 168 kts 271°
2026-04-27 00:46 50.47498 19.37529 4185 ft 158 kts 271°
2026-04-27 00:47 50.47507 19.35835 3974 ft 153 kts 271°
2026-04-27 00:47 50.47513 19.34174 3782 ft 152 kts 271°
2026-04-27 00:47 50.47520 19.32521 3603 ft 152 kts 271°
2026-04-27 00:47 50.47528 19.30859 3431 ft 153 kts 271°
2026-04-27 00:48 50.47536 19.29187 3257 ft 152 kts 270°
2026-04-27 00:48 50.47540 19.27572 3303 ft 147 kts 270°
2026-04-27 00:48 50.47548 19.25928 3123 ft 150 kts 270°
2026-04-27 00:48 50.47555 19.24398 2896 ft 136 kts 270°
2026-04-27 00:49 50.47561 19.22953 2712 ft 131 kts 270°
2026-04-27 00:49 50.47566 19.21525 2533 ft 130 kts 270°
2026-04-27 00:49 50.47571 19.20101 2353 ft 130 kts 270°
2026-04-27 00:49 50.47568 19.18682 2177 ft 130 kts 270°
2026-04-27 00:50 50.47577 19.17263 1995 ft 130 kts 270°
2026-04-27 00:50 50.47584 19.14449 1613 ft 128 kts 269°
2026-04-27 00:50 50.47563 19.13047 1414 ft 129 kts 270°
2026-04-27 00:51 50.47578 19.11670 1228 ft 127 kts 271°
2026-04-27 00:51 50.47591 19.10292 1082 ft 126 kts 271°
2026-04-27 00:51 50.47595 19.08951 998 ft 112 kts 269°
2026-04-27 00:51 50.47599 19.08026 995 ft 53 kts 269°
2026-04-27 00:52 50.47602 19.07569 998 ft 40 kts 270°
2026-04-27 00:52 50.47592 19.07212 1000 ft 26 kts 258°
2026-04-27 00:52 50.47523 19.06945 998 ft 27 kts 240°
2026-04-27 00:52 50.47446 19.06879 998 ft 12 kts 138°
2026-04-27 00:53 50.47429 19.07013 996 ft 14 kts 92°
2026-04-27 00:53 50.47427 19.07172 996 ft 16 kts 90°
2026-04-27 00:53 50.47427 19.07355 996 ft 17 kts 90°
2026-04-27 00:53 50.47372 19.07443 999 ft 13 kts 181°
2026-04-27 00:54 50.47276 19.07443 997 ft 13 kts 179°
2026-04-27 00:54 50.47234 19.07503 996 ft 9 kts 93°
2026-04-27 00:54 50.47234 19.07619 999 ft 12 kts 89°
2026-04-27 00:54 50.47233 19.07761 996 ft 14 kts 91°
2026-04-27 00:55 50.47233 19.07927 1000 ft 16 kts 89°
2026-04-27 00:55 50.47234 19.08103 996 ft 16 kts 91°
2026-04-27 00:55 50.47233 19.08278 998 ft 17 kts 90°
2026-04-27 00:55 50.47233 19.08442 996 ft 7 kts 91°
2026-04-27 00:56 50.47221 19.08468 1001 ft 6 kts 165°
2026-04-27 00:56 50.47169 19.08471 996 ft 9 kts 181°
2026-04-27 00:56 50.47147 19.08471 996 ft 0 kts 179°